[[{"header":{"parameterUnit":"m.s-1","parameterCategory":1,"la1":30.2991,"la2":30.254,"lo1":-89.0895,"lo2":-89.0444,"dy":0.0017,"dx":0.0017,"nx":28,"ny":28,"refTime":"2025-08-15T21:00:00:Z","depth":0,"parameterNumber":2,"parameterNumberName":"U-component_of_WINDS"},"data":[0,0,0,0,0,0,0,0,0,0,0,0,0,0,0,0,0,0,0,0,0,0,0,0,0,0,0,0,0,0,0,0,0,0,0,0,0,0,0,0,0,0,0,0,0,0,0,0,0,0,0,0,0,0,0,0,0,0,2.432,2.432,0,2.4294,2.4293,2.4293,2.4272,2.4271,2.4271,2.4271,2.4238,2.4237,2.4237,0,0,0,0,0,0,0,0,0,0,0,0,0,2.435,2.4349,2.432,2.432,2.4319,2.4294,2.4293,2.4293,2.4272,2.4271,2.4271,2.4271,2.4238,2.4237,2.4236,0,0,0,0,0,0,0,0,0,0,0,0,0,2.4331,2.4349,2.432,2.4306,2.4304,2.4294,2.4293,2.4293,2.4272,2.4271,2.4271,2.4271,2.4238,2.4237,2.4236,2.4236,0,0,2.4233,2.4233,0,0,0,0,0,0,0,0,2.4332,2.433,2.4308,2.4307,2.4305,2.4286,2.4291,2.4273,2.4272,2.4284,2.4271,2.4271,2.4254,2.4251,2.4247,2.4234,2.4233,2.4233,2.4232,2.4232,2.4232,0,0,0,0,0,0,0,2.4334,2.4331,2.4309,2.4308,2.4306,2.43,2.4297,2.4288,2.427,2.4283,2.4281,2.4279,2.4253,2.4248,2.4246,2.4232,2.4233,2.4232,2.4231,2.4231,2.4222,2.4222,0,0,0,0,0,0,2.4338,2.4332,2.431,2.4309,2.4318,2.43,2.4296,2.4292,2.4271,2.4267,2.4279,2.4278,2.425,2.4247,2.4245,2.4244,2.4232,2.4231,2.423,2.4221,2.4222,2.4222,0,0,0,0,0,0,2.4338,2.4336,2.4311,2.432,2.4317,2.43,2.4295,2.4292,2.4287,2.4268,2.4264,2.4277,2.4249,2.4246,2.4239,2.4243,2.4231,2.423,2.4221,2.4221,2.4222,2.4242,0,0,0,0,0,0,2.4339,2.4336,2.4336,2.432,2.4316,2.4307,2.4295,2.4291,2.4286,2.4284,2.4265,2.4262,2.4249,2.4241,2.4238,2.4241,2.4229,2.422,2.4221,2.4222,2.4241,2.4243,2.4245,0,0,0,0,0,2.434,2.4341,2.4336,2.4333,2.4316,2.4307,2.4305,2.4291,2.4286,2.4286,2.4274,2.4262,2.4244,2.4241,2.4237,2.4239,2.422,2.4221,2.4222,2.424,2.4243,2.4245,0,0,0,0,0,0,2.4353,2.4338,2.4333,2.4328,2.432,2.4304,2.4302,2.4294,2.4285,2.4283,2.4266,2.4262,2.4257,2.4248,2.4245,2.424,2.423,2.4231,2.4245,2.4248,2.425,2.4251,2.4228,0,0,0,0,0,2.4357,2.4352,2.4339,2.4336,2.4332,2.4319,2.4314,2.4306,2.4295,2.429,2.4278,2.4267,2.4259,2.4253,2.4244,2.4241,2.4237,2.4241,2.4243,2.4245,2.4245,2.4244,2.4246,2.4225,2.4225,2.4225,0,0,2.4361,2.4352,2.435,2.4338,2.4331,2.4326,2.4315,2.4309,2.4306,2.4288,2.4282,2.4274,2.426,2.4256,2.4253,2.4248,2.4251,2.4246,2.4248,2.4246,2.4245,2.4248,2.4249,2.4225,2.4225,2.4225,0,0,2.4367,2.436,2.4358,2.4352,2.4343,2.4334,2.4334,2.4321,2.4315,2.4309,2.4297,2.4293,2.4278,2.427,2.4264,2.4274,2.4263,2.4272,2.4281,2.4281,2.4283,2.4284,2.4288,2.429,2.4272,2.4272,2.4272,0,2.4373,2.4367,2.4358,2.4355,2.4351,2.4339,2.4337,2.4331,2.4318,2.4315,2.431,2.4295,2.4285,2.428,2.4283,2.4278,2.4278,2.4272,2.4284,2.4285,2.4286,2.429,2.4291,2.4273,2.4273,2.4273,2.4273,0,2.4376,2.4372,2.4372,2.4363,2.4359,2.4357,2.4347,2.4344,2.4338,2.433,2.4325,2.4314,2.4304,2.4303,2.4294,2.4298,2.4295,2.4287,2.4277,2.429,2.4293,2.4294,2.4274,2.4274,2.4274,2.4274,0,0,2.4384,2.4375,2.4375,2.4372,2.4363,2.4359,2.4358,2.4351,2.4349,2.4342,2.434,2.4331,2.4326,2.4319,2.4311,2.4311,2.4321,2.4304,2.4303,2.4307,2.4324,2.4329,2.433,2.4315,2.4315,2.4316,2.4325,0,2.4388,2.4385,2.4379,2.4378,2.4376,2.4368,2.4366,2.4361,2.4355,2.4351,2.4344,2.4339,2.4332,2.4328,2.4328,2.4319,2.4324,2.4319,2.4312,2.4311,2.4313,2.4332,2.4336,2.4345,2.4326,2.4327,2.4327,0,2.439,2.4388,2.4388,2.4383,2.4381,2.438,2.4376,2.4373,2.4367,2.4363,2.4359,2.4351,2.4349,2.4342,2.4339,2.4336,2.4334,2.433,2.433,2.4326,2.4318,2.4328,2.4348,2.4349,2.4328,2.4328,2.4328,0,2.4397,2.4393,2.4393,2.4391,2.4385,2.4385,2.4382,2.4377,2.4374,2.437,2.4369,2.4364,2.436,2.4357,2.4348,2.4344,2.4347,2.4339,2.4343,2.4343,2.4341,2.434,2.4359,2.4342,2.4342,2.4342,2.4342,0,2.4401,2.44,2.4396,2.4396,2.4397,2.4391,2.4391,2.4388,2.4384,2.4383,2.4375,2.4374,2.4364,2.4362,2.4355,2.4354,2.4353,2.4349,2.4347,2.4349,2.4349,2.4345,2.4343,2.4342,2.4342,2.4342,2.4342,0,2.4406,2.4403,2.4403,2.44,2.4399,2.44,2.4396,2.4396,2.4392,2.4391,2.439,2.4383,2.4381,2.4374,2.4368,2.4364,2.4364,2.4361,2.4367,2.4365,2.4369,2.4369,2.4384,2.4386,2.4369,2.4369,2.437,0,2.4407,2.4408,2.4406,2.4407,2.4405,2.4405,2.4404,2.44,2.4399,2.4396,2.4396,2.4394,2.4391,2.4388,2.4382,2.4378,2.4374,2.4381,2.4373,2.4376,2.4374,2.4373,2.4374,2.4381,2.4381,2.4381,2.4381,0,2.441,2.4411,2.4411,2.4412,2.4412,2.4412,2.441,2.4411,2.4406,2.4406,2.4405,2.4404,2.4401,2.4399,2.4396,2.4392,2.4385,2.4385,2.4385,2.4385,2.4388,2.4387,2.4369,2.4383,2.4383,2.4383,2.4383,2.4382,2.4413,2.4415,2.4415,2.4416,2.4417,2.4417,2.4418,2.4417,2.4416,2.4415,2.4413,2.4413,2.4411,2.4406,2.4404,2.4403,2.4399,2.44,2.44,2.44,2.4401,2.4391,2.4403,2.4402,2.4402,2.4402,2.4402,0,2.4416,2.4417,2.4419,2.442,2.4422,2.4421,2.4421,2.4422,2.4422,2.4422,2.4422,2.4422,2.4421,2.4418,2.4416,2.4417,2.4414,2.4417,2.4415,2.4415,2.4404,2.4404,2.4419,2.4419,2.4419,2.4419,2.4419,2.4419,2.4417,2.442,2.4421,2.4425,2.4426,2.4428,2.4428,2.4429,2.4429,2.4431,2.4431,2.443,2.4429,2.4429,2.4428,2.4427,2.4426,2.4429,2.4427,2.4417,2.4415,2.4413,2.4413,2.443,2.443,2.4438,2.4438,2.4438]},{"header":{"parameterUnit":"m.s-1","parameterCategory":1,"la1":30.2991,"la2":30.254,"lo1":-89.0895,"lo2":-89.0444,"dy":0.0017,"dx":0.0017,"nx":28,"ny":28,"refTime":"2025-08-15T21:00:00:Z","depth":0,"parameterNumber":3,"parameterNumberName":"V-component_of_WINDS"},"data":[0,0,0,0,0,0,0,0,0,0,0,0,0,0,0,0,0,0,0,0,0,0,0,0,0,0,0,0,0,0,0,0,0,0,0,0,0,0,0,0,0,0,0,0,0,0,0,0,0,0,0,0,0,0,0,0,0,0,-1.2174,-1.2173,0,-1.2122,-1.2121,-1.212,-1.2072,-1.2071,-1.2071,-1.207,-1.2018,-1.2017,-1.2016,0,0,0,0,0,0,0,0,0,0,0,0,0,-1.2233,-1.2232,-1.2174,-1.2173,-1.2172,-1.2122,-1.2121,-1.212,-1.2072,-1.2071,-1.207,-1.207,-1.2018,-1.2017,-1.2016,0,0,0,0,0,0,0,0,0,0,0,0,0,-1.2197,-1.2232,-1.2174,-1.2142,-1.2139,-1.2122,-1.2121,-1.212,-1.2072,-1.2071,-1.207,-1.2069,-1.2018,-1.2017,-1.2016,-1.2027,0,0,-1.2012,-1.2012,0,0,0,0,0,0,0,0,-1.2199,-1.2195,-1.2147,-1.2144,-1.214,-1.2102,-1.2123,-1.2089,-1.2072,-1.2097,-1.207,-1.2069,-1.2047,-1.2043,-1.2035,-1.2024,-1.2022,-1.2012,-1.2011,-1.2011,-1.2011,0,0,0,0,0,0,0,-1.2202,-1.2197,-1.2153,-1.2147,-1.2142,-1.2131,-1.2125,-1.2116,-1.2078,-1.2095,-1.2091,-1.2086,-1.2045,-1.2037,-1.2034,-1.2021,-1.2012,-1.2011,-1.201,-1.201,-1.2016,-1.2017,0,0,0,0,0,0,-1.2209,-1.2199,-1.2155,-1.2151,-1.2168,-1.2131,-1.2124,-1.2115,-1.2078,-1.2071,-1.2087,-1.2084,-1.2039,-1.2035,-1.2032,-1.2041,-1.2011,-1.201,-1.2009,-1.2015,-1.2016,-1.2017,0,0,0,0,0,0,-1.221,-1.2205,-1.2157,-1.2174,-1.2167,-1.2131,-1.2122,-1.2115,-1.2107,-1.2071,-1.2065,-1.2085,-1.2038,-1.2034,-1.2028,-1.2038,-1.2009,-1.2008,-1.2014,-1.2015,-1.2017,-1.206,0,0,0,0,0,0,-1.2212,-1.2206,-1.2209,-1.2175,-1.2167,-1.2154,-1.2122,-1.2114,-1.2105,-1.21,-1.2068,-1.2062,-1.2037,-1.203,-1.2027,-1.2036,-1.2007,-1.2013,-1.2015,-1.2016,-1.2057,-1.2062,-1.2067,0,0,0,0,0,-1.2214,-1.2224,-1.2209,-1.2204,-1.217,-1.2154,-1.215,-1.212,-1.2106,-1.2109,-1.2086,-1.2063,-1.2038,-1.203,-1.2026,-1.2035,-1.2012,-1.2014,-1.2016,-1.2055,-1.2061,-1.2067,0,0,0,0,0,0,-1.226,-1.2218,-1.2202,-1.2201,-1.2181,-1.2146,-1.2149,-1.2128,-1.2113,-1.2109,-1.2074,-1.2068,-1.2066,-1.205,-1.2042,-1.2043,-1.2022,-1.2023,-1.2053,-1.2059,-1.2063,-1.2066,-1.2006,0,0,0,0,0,-1.2271,-1.2261,-1.2225,-1.2227,-1.2218,-1.2186,-1.2178,-1.2157,-1.2136,-1.2127,-1.2104,-1.2085,-1.2073,-1.2065,-1.2052,-1.2056,-1.2047,-1.206,-1.2065,-1.2069,-1.207,-1.207,-1.2074,-1.2024,-1.2024,-1.2024,0,0,-1.2291,-1.2267,-1.2263,-1.2236,-1.2218,-1.2209,-1.2179,-1.2171,-1.2164,-1.2126,-1.2119,-1.2102,-1.2078,-1.2077,-1.2075,-1.2064,-1.2082,-1.2071,-1.2075,-1.2073,-1.2072,-1.2077,-1.2081,-1.2025,-1.2025,-1.2025,0,0,-1.2323,-1.2304,-1.2303,-1.2287,-1.226,-1.2239,-1.2239,-1.2207,-1.2194,-1.2186,-1.2158,-1.215,-1.213,-1.2113,-1.2103,-1.213,-1.2108,-1.2127,-1.2151,-1.2152,-1.2156,-1.2159,-1.2168,-1.2171,-1.2129,-1.2129,-1.2129,0,-1.2351,-1.2336,-1.2306,-1.2299,-1.2288,-1.2254,-1.2253,-1.2238,-1.221,-1.2203,-1.2191,-1.2165,-1.2146,-1.214,-1.2147,-1.214,-1.2139,-1.2129,-1.2158,-1.2161,-1.2163,-1.2171,-1.2175,-1.2131,-1.2131,-1.2131,-1.2131,0,-1.2372,-1.2362,-1.2365,-1.2337,-1.2327,-1.2323,-1.2293,-1.2286,-1.2267,-1.2247,-1.224,-1.2217,-1.2198,-1.2196,-1.2178,-1.2188,-1.2181,-1.2164,-1.2142,-1.2171,-1.2178,-1.2181,-1.2135,-1.2134,-1.2133,-1.2132,0,0,-1.2429,-1.2386,-1.2387,-1.2374,-1.2343,-1.2335,-1.2331,-1.2312,-1.2307,-1.2289,-1.2284,-1.2268,-1.2252,-1.224,-1.222,-1.2221,-1.2243,-1.2203,-1.2202,-1.221,-1.2252,-1.2263,-1.2267,-1.2229,-1.223,-1.223,-1.2253,0,-1.2455,-1.2443,-1.2416,-1.2413,-1.2403,-1.2371,-1.2368,-1.2349,-1.2331,-1.232,-1.2301,-1.2289,-1.227,-1.2262,-1.2262,-1.224,-1.225,-1.2239,-1.2223,-1.2223,-1.2228,-1.2271,-1.2283,-1.2306,-1.2256,-1.2256,-1.2257,0,-1.2482,-1.2465,-1.2461,-1.2431,-1.2426,-1.2423,-1.2403,-1.2395,-1.2373,-1.236,-1.2347,-1.2325,-1.2319,-1.23,-1.2291,-1.2284,-1.2276,-1.2265,-1.2265,-1.2261,-1.224,-1.2266,-1.2312,-1.2315,-1.2261,-1.226,-1.226,0,-1.2522,-1.2499,-1.2493,-1.2483,-1.2449,-1.2447,-1.2433,-1.241,-1.2401,-1.2385,-1.2379,-1.2363,-1.2354,-1.2342,-1.2316,-1.2305,-1.231,-1.2289,-1.2298,-1.2299,-1.2298,-1.2298,-1.2342,-1.2298,-1.2297,-1.2297,-1.2297,0,-1.2551,-1.255,-1.251,-1.2506,-1.2504,-1.2474,-1.2473,-1.2456,-1.2436,-1.2429,-1.2402,-1.2396,-1.2363,-1.2354,-1.2334,-1.2329,-1.2326,-1.2315,-1.2309,-1.2316,-1.2317,-1.2309,-1.2306,-1.2298,-1.2298,-1.2298,-1.2298,0,-1.2594,-1.2568,-1.2559,-1.2528,-1.252,-1.2519,-1.2492,-1.2488,-1.2469,-1.246,-1.2457,-1.2427,-1.2414,-1.2388,-1.2368,-1.2355,-1.2354,-1.2346,-1.2361,-1.2357,-1.2367,-1.2366,-1.2406,-1.2409,-1.2364,-1.2365,-1.2365,0,-1.2614,-1.2611,-1.258,-1.2572,-1.2559,-1.2548,-1.2539,-1.251,-1.2501,-1.2477,-1.2476,-1.2461,-1.2448,-1.2429,-1.2406,-1.2391,-1.2381,-1.2396,-1.2378,-1.2385,-1.2379,-1.2379,-1.2378,-1.2399,-1.24,-1.24,-1.2401,0,-1.265,-1.2638,-1.2624,-1.2607,-1.2596,-1.2581,-1.2565,-1.2561,-1.2528,-1.252,-1.2507,-1.2496,-1.2477,-1.2462,-1.2444,-1.243,-1.241,-1.2407,-1.2408,-1.2414,-1.2422,-1.2416,-1.237,-1.2405,-1.2405,-1.2405,-1.2404,-1.2404,-1.268,-1.2677,-1.2654,-1.264,-1.2625,-1.2611,-1.2605,-1.2585,-1.2573,-1.2554,-1.2539,-1.2527,-1.2507,-1.248,-1.2468,-1.2458,-1.2448,-1.245,-1.245,-1.245,-1.2453,-1.2426,-1.2455,-1.2455,-1.2455,-1.2455,-1.2454,0,-1.2714,-1.2698,-1.2686,-1.2664,-1.2653,-1.2636,-1.2617,-1.261,-1.2599,-1.2582,-1.2569,-1.2554,-1.2541,-1.2517,-1.2502,-1.2499,-1.2489,-1.2495,-1.2494,-1.2491,-1.2463,-1.2463,-1.2503,-1.2503,-1.2503,-1.2503,-1.2503,-1.2503,-1.273,-1.2723,-1.2708,-1.2693,-1.2678,-1.2665,-1.2656,-1.2642,-1.2628,-1.2613,-1.2601,-1.2586,-1.2566,-1.2549,-1.2536,-1.253,-1.2524,-1.2533,-1.2524,-1.2498,-1.2493,-1.2489,-1.2488,-1.2533,-1.2533,-1.2552,-1.2552,-1.2553]}]]